Weather History for Whitefield, NH

Change the Weather History Date:

Saturday, February 16, 2013

  Actual Average Record
Temperature  
Mean Temperature 24 °F -  
Max Temperature 28 °F 28 °F 53 °F (2006)
Min Temperature 19 °F 1 °F -31 °F (2003)
Degree Days  
Heating Degree Days 42    
Moisture  
Dew Point 15 °F    
Average Humidity 68    
Maximum Humidity 88    
Minimum Humidity 45    
Precipitation  
Precipitation 0.02 in - - ()
Sea Level Pressure  
Sea Level Pressure 29.93 in    
Wind  
Wind Speed 2 mph (NNW)    
Max Wind Speed 9 mph    
Max Gust Speed -    
Visibility 9 miles    
Events Snow    
Averages and records for this station are not official NWS values.
T = Trace of Precipitation, MM = Missing Value Source: NWS Daily Summary

Daily Weather History Graph

Daily Weather History Graph

Search for Another Location

Airport:

Trip Planner

Search our weather history database for the weather conditions in past years. The results will help you decide how hot, cold, wet, or windy it might be!

Date:

Astronomy

Feb. 16, 2013 Rise Set
Actual Time 6:44 AM EST 5:16 PM EST
Civil Twilight 6:14 AM EST 5:46 PM EST
Nautical Twilight 5:40 AM EST 6:20 PM EST
Astronomical Twilight 5:06 AM EST 6:54 PM EST
Moon 9:38 AM EST (2/16) No Moon Set
Length of Visible Light 11h 32m
Length of Day
10h 32m
Waxing Crescent, 39% of the Moon is Illuminated
Feb 16
Waxing Crescent
Feb 17
First Quarter
Feb 25
Full
Mar 4
Last Quarter
Mar 11
New

Hourly Weather History & Observations

Time (EST) Temp. Windchill Dew Point Humidity Pressure Visibility Wind Dir Wind Speed Gust Speed Precip Events Conditions
12:52 AM 23.0 °F - 19.0 °F 85% 29.94 in 10.0 mi Calm Calm - N/A   Mostly Cloudy
1:52 AM 21.0 °F - 18.0 °F 88% 29.95 in 10.0 mi Calm Calm - N/A   Overcast
2:31 AM 24.8 °F - 19.4 °F 80% 29.91 in 10.0 mi Calm Calm - N/A   Overcast
2:52 AM 24.1 °F - 19.9 °F 84% 29.94 in 10.0 mi Calm Calm - 0.00 in Snow Light Snow
3:03 AM 24.8 °F - 19.4 °F 80% 29.91 in 5.0 mi Calm Calm - 0.00 in Snow Light Snow
3:35 AM 24.8 °F - 21.2 °F 86% 29.91 in 5.0 mi Calm Calm - 0.00 in Snow Light Snow
4:33 AM 26.6 °F 21.2 °F 23.0 °F 86% 29.90 in 2.5 mi WNW 4.6 mph - 0.00 in Snow Light Snow
4:52 AM 26.1 °F 20.5 °F 23.0 °F 88% 29.95 in 2.5 mi WNW 4.6 mph - 0.00 in Snow Light Snow
5:52 AM 26.1 °F - 23.0 °F 88% 29.95 in 2.5 mi Calm Calm - 0.01 in Snow Light Snow
6:26 AM 26.6 °F 21.2 °F 21.2 °F 80% 29.91 in 4.0 mi NW 4.6 mph - 0.01 in Snow Light Snow
6:33 AM 24.8 °F 19.1 °F 21.2 °F 86% 29.92 in 4.0 mi WNW 4.6 mph - 0.01 in Snow Light Snow
6:52 AM 25.0 °F 20.7 °F 21.0 °F 85% 29.96 in 8.0 mi NNW 3.5 mph - 0.01 in Snow Light Snow
6:59 AM 24.8 °F 20.5 °F 21.2 °F 86% 29.92 in 9.0 mi NW 3.5 mph - 0.00 in   Overcast
7:52 AM 25.0 °F - 21.0 °F 85% 29.97 in 10.0 mi Calm Calm - 0.00 in   Overcast
8:52 AM 26.1 °F - 21.9 °F 84% 29.97 in 10.0 mi Calm Calm - N/A   Overcast
9:52 AM 28.0 °F 24.2 °F 17.1 °F 63% 29.96 in 10.0 mi North 3.5 mph - N/A   Overcast
10:07 AM 28.4 °F 24.6 °F 17.6 °F 64% 29.91 in 10.0 mi North 3.5 mph - N/A   Overcast
10:18 AM 28.4 °F 22.2 °F 15.8 °F 59% 29.91 in 10.0 mi NNW 5.8 mph - N/A   Overcast
10:27 AM 28.4 °F 22.2 °F 15.8 °F 59% 29.91 in 10.0 mi North 5.8 mph - N/A   Overcast
10:52 AM 28.0 °F - 16.0 °F 61% 29.96 in 10.0 mi Calm Calm - N/A   Mostly Cloudy
11:52 AM 28.9 °F - 17.1 °F 61% 29.94 in 10.0 mi Calm Calm - N/A   Overcast
12:52 PM 28.9 °F 22.8 °F 17.1 °F 61% 29.92 in 10.0 mi NE 5.8 mph - N/A   Overcast
1:52 PM 28.9 °F 23.9 °F 15.1 °F 56% 29.91 in 10.0 mi NE 4.6 mph - N/A   Overcast
2:52 PM 28.9 °F 25.2 °F 12.9 °F 51% 29.91 in 10.0 mi West 3.5 mph - N/A   Overcast
3:52 PM 28.9 °F 23.9 °F 12.0 °F 49% 29.91 in 10.0 mi NNW 4.6 mph - N/A   Overcast
4:52 PM 27.0 °F 19.5 °F 9.0 °F 47% 29.91 in 10.0 mi North 6.9 mph - N/A   Overcast
5:52 PM 25.0 °F 18.1 °F 6.1 °F 45% 29.93 in 10.0 mi North 5.8 mph - N/A   Mostly Cloudy
6:52 PM 23.0 °F 13.1 °F 5.0 °F 46% 29.94 in 10.0 mi NNW 9.2 mph - N/A   Scattered Clouds
7:52 PM 21.9 °F 15.7 °F 5.0 °F 48% 29.94 in 10.0 mi NW 4.6 mph - N/A   Overcast
8:52 PM 21.0 °F 12.4 °F 3.0 °F 46% 29.92 in 10.0 mi NNW 6.9 mph - N/A   Overcast
9:52 PM 19.9 °F 13.4 °F 3.0 °F 48% 29.91 in 10.0 mi North 4.6 mph - N/A   Overcast
10:52 PM 19.0 °F - 3.0 °F 50% 29.89 in 10.0 mi Calm Calm - N/A   Overcast
11:52 PM 19.0 °F 12.3 °F 1.9 °F 47% 29.86 in 10.0 mi NNW 4.6 mph - N/A   Overcast